Helicity
200 149 107 -23 74 139 128 308 362 153 363 356 320 192 264 175 61 104 87 100 126 97 72 129 129 90 72 52 131 89 58 15 -38 14 76 79 67 61 107 129 121 152 98 82
236 172 122 79 102 156 240 395 406 125 316 385 272 266 173 222 75 65 37 73 97 132 89 103 93 43 36 25 47 46 79 39 -52 4 52 74 29 68 157 184 196 139 124 91
278 180 142 81 115 206 249 409 502 394 261 272 275 286 207 123 112 90 118 80 53 121 120 92 38 40 14 29 46 58 161 121 77 24 72 91 80 123 131 141 136 93 114 39
316 182 137 64 150 237 298 297 491 568 450 203 281 223 266 143 119 76 115 90 52 77 120 120 71 71 108 85 74 89 115 49 108 110 81 102 88 98 110 121 111 107 79 24
305 184 137 142 228 138 328 350 457 424 422 266 336 287 190 109 116 124 125 105 41 43 117 140 160 86 114 124 119 144 161 83 109 185 194 138 131 94 96 101 122 111 97 55
317 185 117 176 160 229 374 338 370 445 338 222 292 251 302 203 107 111 59 52 95 106 41 79 175 143 46 69 126 171 168 154 126 83 153 163 84 120 141 153 194 183 158 88
359 194 248 267 237 194 333 287 539 406 291 277 191 208 305 244 147 160 85 107 78 58 -2 16 -5 92 138 164 188 193 258 258 179 106 199 61 117 154 156 163 145 160 178 156
312 185 221 186 31 72 290 323 430 377 222 181 214 192 145 289 167 96 101 84 94 60 147 57 112 141 179 230 257 234 206 235 195 154 141 155 150 188 182 146 83 107 131 204
250 218 208 189 48 31 236 227 255 219 274 93 197 137 152 165 152 116 47 80 38 103 139 102 148 180 184 243 281 204 203 192 179 213 169 142 118 138 212 219 128 132 158 162
196 191 195 149 103 55 274 184 131 -59 190 254 143 178 169 168 160 126 86 102 64 89 213 139 141 179 151 234 257 239 266 244 193 259 195 172 126 154 206 238 119 210 193 134
138 134 121 116 116 108 177 133 96 55 -8 141 191 199 209 217 125 150 89 110 137 166 197 214 181 189 195 230 240 293 279 267 236 270 233 173 210 315 245 135 108 167 179 151
135 132 105 91 42 5 158 114 79 131 100 134 73 151 210 197 183 162 127 120 133 169 221 260 188 232 284 279 257 300 247 221 197 207 173 189 156 172 113 113 109 100 182 141
110 102 98 119 114 49 145 76 73 144 67 -46 107 212 43 33 60 159 148 149 186 160 182 211 184 200 271 246 188 278 270 256 247 245 182 164 126 107 79 89 80 147 146 181
118 115 108 131 118 82 99 -0 -55 105 45 139 201 96 101 43 48 87 139 108 187 125 208 212 138 196 183 210 189 253 242 303 241 220 194 157 81 79 89 133 187 237 257 235
108 94 89 72 77 42 102 8 42 67 151 117 126 219 106 55 90 67 90 87 109 172 195 200 176 150 180 238 235 211 278 225 290 219 150 182 103 135 166 215 228 244 347 356
-17 4 20 45 63 101 128 135 38 149 36 4 180 94 88 63 58 50 105 146 155 163 189 168 131 180 216 191 198 166 193 208 189 137 194 211 222 301 275 317 315 335 384 375
31 34 46 43 87 120 221 167 75 167 163 -42 153 117 64 101 81 193 220 256 204 181 188 170 148 147 201 177 150 105 148 202 233 288 360 289 234 227 331 404 430 458 477 443
32 29 16 18 21 44 160 209 57 96 75 41 124 174 185 150 159 218 268 252 260 248 227 206 181 211 245 229 249 200 291 326 358 323 259 243 365 408 433 435 468 533 498 464
43 47 40 87 132 133 114 67 -85 -71 23 9 45 127 158 38 120 214 233 256 261 204 249 260 220 240 261 271 251 177 218 206 273 344 314 340 431 473 473 490 493 524 462 428
4 -5 176 247 104 -3 27 18 40 60 61 25 30 31 -16 11 -55 55 281 298 316 302 298 234 241 233 301 236 221 210 215 173 243 360 358 409 471 451 429 441 420 410 393 386
156 258 164 120 53 93 49 38 30 67 26 7 10 -1 21 52 46 82 68 337 271 258 232 242 151 231 243 264 226 122 210 85 166 178 248 301 399 448 430 444 421 391 381 373
100 99 135 151 89 40 -41 42 50 50 40 33 7 40 41 107 213 129 76 311 304 209 230 343 148 173 162 236 336 339 361 336 344 344 380 375 401 361 365 373 367 347 334 372
144 91 15 86 62 16 44 56 65 92 145 158 108 77 39 186 152 125 80 154 299 118 157 150 145 164 195 247 318 412 396 357 362 387 409 431 448 427 398 394 370 364 443 397
101 103 5 28 27 32 57 93 69 36 26 99 143 109 97 92 163 128 120 139 119 168 169 169 133 150 204 254 278 294 303 324 347 347 378 391 384 376 377 342 361 365 308 198
41 31 7 35 89 114 127 90 78 81 80 67 60 103 82 92 101 123 135 126 151 187 145 155 170 174 196 230 256 276 292 313 323 298 321 310 304 329 350 299 257 224 197 185
62 112 96 79 50 87 93 100 89 115 104 87 83 65 80 108 105 115 131 129 186 124 131 105 87 129 197 217 216 212 204 242 269 285 279 269 236 223 206 200 195 185 181 175
66 86 122 75 51 60 81 91 88 99 34 37 60 86 88 94 119 130 157 151 146 137 126 104 134 151 132 152 193 206 214 232 238 230 218 211 208 206 202 205 168 179 184 193
Wind_Speed
82 69 67 93 96 79 73 79 94 61 62 76 86 103 76 78 87 69 62 50 55 54 49 36 28 23 22 8 9 10 8 4 15 18 31 35 34 36 33 40 44 46 55 41
80 75 63 82 94 86 81 86 80 63 73 93 95 92 96 80 87 79 63 65 51 48 49 48 38 35 31 13 6 4 6 11 18 29 44 35 35 43 43 39 38 35 53 51
81 80 70 65 90 92 86 80 87 75 94 106 95 92 90 99 81 77 70 65 67 65 57 54 49 41 31 16 12 6 2 11 17 36 34 46 51 47 37 36 42 50 22 69
82 79 75 68 82 92 92 90 93 86 97 111 96 89 89 96 97 85 76 72 80 58 56 49 48 41 33 27 18 14 6 11 15 30 40 37 41 49 45 55 50 37 38 66
83 80 75 69 85 89 93 97 92 91 90 110 103 91 110 97 98 75 88 89 73 80 68 48 40 43 39 34 26 19 16 17 18 23 36 30 35 40 43 48 48 52 39 67
85 79 76 81 80 81 94 87 83 84 105 103 100 126 98 105 82 102 76 86 84 77 85 81 73 58 55 43 27 19 18 14 17 14 36 38 29 28 41 55 48 46 45 62
86 82 76 80 77 81 78 91 82 91 94 106 106 95 104 99 94 88 102 77 65 67 58 45 47 46 43 36 37 30 21 18 27 25 34 27 31 44 42 44 56 49 58 55
85 85 84 83 83 73 78 83 90 81 96 108 95 96 101 97 91 101 90 79 76 54 50 63 59 52 49 46 39 37 31 22 27 24 27 55 48 38 41 36 43 40 43 38
83 82 79 90 85 75 76 76 82 70 74 106 94 93 88 99 103 92 97 84 74 57 61 67 66 61 50 47 37 33 27 30 30 33 36 40 54 30 30 33 36 30 23 9
79 78 73 76 79 76 76 94 86 74 72 64 86 95 94 81 82 88 81 82 74 63 74 71 74 76 50 45 37 37 33 36 31 39 48 60 38 38 20 32 44 15 7 4
74 68 66 65 64 62 69 105 89 75 77 79 64 76 84 82 91 81 63 60 82 74 78 69 61 63 55 52 43 40 33 33 36 43 50 62 30 25 27 34 35 6 5 5
61 61 59 57 56 63 67 84 94 78 69 71 54 67 74 80 79 78 69 63 59 63 66 69 58 57 48 47 50 47 45 38 43 39 43 41 22 27 15 22 16 3 8 2
55 57 53 55 54 59 76 78 88 85 72 78 73 69 60 65 74 72 72 71 56 62 60 58 57 62 49 52 51 45 46 39 47 43 44 37 30 21 22 15 6 3 2 6
52 54 50 51 53 48 77 81 77 73 60 76 61 47 62 51 67 75 78 60 59 48 54 63 63 62 48 53 53 48 44 32 41 51 46 37 32 21 16 14 11 8 9 5
48 51 49 48 60 42 68 79 70 73 69 70 68 65 59 52 59 75 75 75 63 57 60 62 68 56 48 49 51 55 41 39 37 48 33 29 26 16 14 11 12 11 6 11
35 38 44 39 45 45 50 67 82 65 67 57 64 51 56 56 52 69 70 65 67 65 61 64 62 55 54 55 63 61 35 36 36 36 23 29 23 20 22 16 16 15 14 12
33 33 35 37 42 46 59 62 45 59 48 52 57 61 51 51 49 47 56 56 56 59 58 60 59 62 55 59 79 69 35 37 37 27 19 28 22 26 19 14 14 14 15 15
31 33 35 38 37 50 56 49 45 48 51 48 55 56 49 40 49 51 48 53 51 54 59 56 58 55 57 65 63 49 37 32 33 35 39 31 18 15 15 14 11 13 14 12
33 36 30 29 57 57 52 47 51 50 50 58 59 60 56 39 38 42 42 44 54 49 61 61 55 55 59 47 37 34 37 38 25 23 24 21 19 18 17 16 15 14 15 14
42 41 38 49 64 64 51 55 47 52 60 58 55 50 57 48 48 43 48 45 46 55 55 46 62 73 61 48 39 28 29 28 19 22 25 21 22 21 18 18 17 15 13 13
64 54 49 65 71 57 50 47 50 53 60 63 61 51 52 44 49 46 44 44 40 58 51 52 60 79 59 52 33 24 23 19 35 33 28 25 17 14 15 16 16 14 14 15
63 63 69 69 55 45 54 50 46 56 61 53 49 47 48 46 46 44 39 36 37 48 38 46 65 63 53 46 37 31 27 28 29 23 17 15 13 12 12 13 13 13 13 13
58 59 61 51 40 44 48 51 45 44 42 43 43 39 29 29 32 32 33 32 34 25 38 33 37 33 30 24 20 21 20 18 15 14 12 10 11 12 13 14 13 9 15 16
51 52 46 31 30 29 35 37 33 28 28 28 30 35 34 34 31 32 39 34 30 42 46 44 42 26 21 21 20 15 14 13 11 12 11 12 12 13 13 11 11 13 14 14
47 41 32 18 22 20 20 23 23 22 23 21 22 24 29 30 31 31 33 40 40 41 44 43 39 25 20 20 17 13 11 12 13 12 12 12 11 11 12 14 14 14 13 15
25 20 20 14 10 8 11 16 18 23 25 25 24 26 28 30 32 33 36 35 37 39 40 38 25 20 19 16 14 14 14 13 14 14 13 13 14 13 14 16 16 17 17 19
17 12 14 14 17 21 21 23 27 30 25 26 26 27 31 30 31 32 33 33 40 41 36 31 28 23 18 15 15 15 16 16 16 16 17 17 16 15 14 16 18 21 24 26
Wind_Direction
233 231 236 234 226 218 218 227 232 222 210 222 235 238 240 244 241 248 249 258 254 252 254 258 256 262 188 251 198 220 185 284 217 272 287 288 290 292 299 297 305 305 301 315
225 227 223 231 222 214 216 227 229 220 213 225 232 238 238 242 239 240 247 247 255 257 259 259 262 264 270 259 284 196 195 258 209 270 279 290 289 293 294 301 309 303 302 308
219 223 222 220 217 209 214 225 221 222 222 228 230 231 236 234 240 242 242 247 248 250 257 261 262 263 274 258 257 282 221 269 217 209 272 282 282 284 288 296 299 301 306 285
215 217 220 209 206 207 212 223 225 222 219 223 229 229 235 233 233 237 238 244 240 249 253 260 260 266 271 283 286 290 247 276 260 280 282 286 287 283 288 288 294 292 308 279
210 213 213 199 184 201 217 221 222 224 230 224 225 230 230 231 230 235 234 237 241 240 246 256 260 272 269 272 278 273 283 300 296 283 284 288 291 292 293 293 295 295 304 284
205 205 200 188 184 196 218 222 226 226 224 221 223 227 231 230 232 232 238 237 242 244 242 248 261 271 272 281 269 252 262 267 287 252 288 293 279 287 294 294 295 295 292 292
199 195 192 183 187 193 219 218 220 224 226 222 227 229 229 231 232 235 233 240 245 250 257 269 275 277 275 277 277 276 260 260 284 285 291 229 290 304 306 298 295 294 294 295
194 191 188 184 182 191 221 220 218 227 228 224 229 229 229 231 234 233 237 239 247 256 260 254 259 265 265 268 278 278 273 261 278 279 278 290 301 310 310 309 306 307 302 299
190 189 185 182 186 190 222 221 218 229 231 227 227 227 229 229 232 236 236 241 247 255 249 248 250 254 259 263 269 281 277 275 268 291 288 291 305 315 316 316 302 312 315 308
188 192 188 182 183 185 222 220 219 227 232 231 226 226 227 229 231 237 238 238 243 245 244 247 249 253 263 257 252 264 267 272 267 281 288 294 311 321 328 299 312 311 271 214
189 189 185 188 190 187 212 216 218 226 231 233 243 231 228 228 229 233 240 237 239 239 239 244 248 255 255 259 264 258 255 262 274 285 289 293 316 321 296 311 324 305 211 215
183 180 179 188 184 173 210 215 216 227 238 233 249 240 240 235 235 234 239 243 239 238 239 243 248 258 259 263 262 269 265 269 275 278 290 306 320 318 312 324 331 116 148 193
181 183 183 194 197 167 209 218 211 226 232 234 244 238 244 241 238 236 235 241 248 240 245 246 253 259 260 263 269 270 273 276 277 285 292 300 309 313 320 328 0 82 103 125
182 188 191 200 205 180 212 211 213 225 224 225 234 249 243 254 241 237 238 247 245 252 247 244 251 258 264 264 272 270 276 270 278 284 293 298 299 301 308 316 325 333 333 338
189 196 200 204 206 170 208 210 222 225 224 226 236 252 248 249 249 240 237 239 243 244 246 247 250 259 264 271 273 270 270 274 273 285 284 282 296 290 296 296 302 305 308 325
173 182 190 169 157 178 204 211 225 229 229 235 230 248 245 250 258 242 235 237 241 244 250 250 253 260 260 266 270 275 270 275 277 286 285 288 295 291 293 293 301 310 313 319
158 165 168 170 173 198 208 210 221 208 221 231 238 237 247 254 258 248 235 237 242 244 250 254 254 256 263 268 265 279 272 274 278 279 281 288 288 287 288 294 308 320 327 330
166 171 174 182 189 207 219 218 213 205 221 237 234 233 241 262 245 238 242 238 244 249 249 255 257 262 264 269 273 277 273 272 271 277 282 284 283 287 290 296 300 308 313 322
170 179 179 183 206 204 201 199 197 218 228 226 232 229 230 256 250 249 249 248 245 255 249 251 256 259 262 270 277 268 273 277 267 280 285 283 276 275 278 282 289 291 300 310
158 150 194 192 190 184 188 197 213 224 224 231 229 236 236 252 248 274 249 252 248 249 254 257 258 258 263 272 285 279 282 274 267 276 282 280 278 272 273 281 289 294 300 311
171 177 178 167 171 185 198 211 221 215 215 223 230 246 251 261 257 254 267 250 254 252 259 249 268 254 261 269 278 281 291 279 285 288 289 287 277 264 269 286 296 297 308 314
160 160 160 157 169 189 199 209 220 213 211 220 238 245 256 258 254 255 266 257 260 261 261 258 263 264 270 273 278 288 287 287 295 298 294 298 299 298 294 295 299 306 315 329
154 155 163 170 186 198 207 210 212 219 232 238 244 248 281 268 274 265 274 265 262 262 260 275 279 289 290 296 295 296 301 305 310 318 325 330 326 324 316 314 318 323 324 342
160 163 170 190 210 227 224 218 222 239 259 264 258 258 274 278 280 285 268 278 278 268 270 274 287 305 311 307 306 308 310 314 321 329 332 333 331 334 338 340 332 335 337 339
157 169 183 197 190 200 225 234 241 261 272 283 274 284 288 294 294 299 283 272 274 281 278 294 303 308 314 313 317 324 331 332 334 340 346 357 1 358 345 337 339 339 341 340
187 178 185 209 220 256 262 258 270 278 260 247 281 283 284 286 291 288 283 283 286 294 303 311 316 317 326 335 338 339 352 359 0 2 5 4 355 349 340 342 340 339 341 340
219 272 302 254 299 321 297 279 272 267 280 271 281 275 273 289 281 285 296 295 296 300 311 322 327 331 339 344 345 353 3 6 8 5 356 352 354 357 352 344 343 342 338 337